This demonstration page uses our WeatherBlox Daily Observations layout. Learn more.

Left ArrowRight Arrow

Hourly Observations for July 26, 2020

Temp ( °F °C ) Dew Point ( °F °C ) Humidity (%) Winds ( mph kmh ) Pressure ( in mb ) Visibility ( mi km ) Precip ( " mm )
12:53 am 00:53 Clear 80 26.7 70 21.1 71 71 SSW 9 15 29.93 1014 10 16 0.00 0.00
1:42 am 01:42 Cloudy 76 24.4 65 18.3 69 69 NNW 20 31 29.98 1015 10 16 0.00 0.00
1:53 am 01:53 Cloudy with Thunderstorms 73 22.8 67 19.4 81 81 NNW 16 26 30.00 1016 5 8 0.08 2.03
2:15 am 02:15 Cloudy with Thunderstorms 71 21.7 68 20 90 90 NNW 12 19 30.01 1016 3 4 0.15 3.81
2:21 am 02:21 Cloudy with Strong Thunderstorms 71 21.7 69 20.6 94 94 N 10 17 30.00 1016 2 2 0.30 7.62
2:32 am 02:32 Cloudy with Thunderstorms 71 21.7 69 20.6 94 94 N 14 22 29.99 1016 3 4 0.36 9.14
2:40 am 02:40 Cloudy with Thunderstorms 72 22 70 21 94 94 NE 7 11 29.98 1015 4 6 0.00 0.00
2:53 am 02:53 Cloudy with Nearby Thunderstorms 71 21.7 69 20.6 94 94 ENE 7 11 29.97 1015 10 16 0.38 9.65
3:11 am 03:11 Mostly Cloudy 72 22.2 69 20.6 91 91 SSE 7 11 29.96 1015 10 16 0.00 0.00
3:53 am 03:53 Mostly Clear 72 22.2 70 21.1 94 94 SSW 3 6 29.95 1014 10 16 0.00 0.00
4:53 am 04:53 Mostly Clear 72 22.2 70 21.1 94 94 SSE 9 15 29.92 1013 10 16 0.00 0.00
5:53 am 05:53 Clear 72 22.2 69 20.6 91 91 S 8 13 29.91 1013 10 16 0.00 0.00
6:53 am 06:53 Sunny 74 23.3 69 20.6 85 85 S 8 13 29.90 1013 10 16 0.00 0.00
7:53 am 07:53 Sunny 75 23.9 71 21.7 88 88 SSW 8 13 29.91 1013 10 16 0.00 0.00
8:53 am 08:53 Sunny 79 26.1 72 22.2 79 79 SW 5 7 29.94 1014 10 16 0.00 0.00
9:53 am 09:53 Sunny 82 27.8 72 22.2 72 72 WSW 9 15 29.95 1014 10 16 0.00 0.00
10:53 am 10:53 Partly Cloudy 83 28.3 71 21.7 67 67 W 7 11 29.96 1015 10 16 0.00 0.00
11:53 am 11:53 Partly Cloudy 85 29.4 72 22.2 65 65 N 7 11 29.97 1015 10 16 0.00 0.00
12:53 pm 12:53 Sunny 86 30 74 23.3 67 67 NNE 6 9 29.97 1015 10 16 0.00 0.00
1:53 pm 13:53 Mostly Sunny 87 30.6 73 22.8 63 63 NE 8 13 29.97 1015 10 16 0.00 0.00
2:53 pm 14:53 Mostly Cloudy 88 31.1 73 22.8 61 61 NE 8 13 29.97 1015 10 16 0.00 0.00
3:53 pm 15:53 Mostly Cloudy 87 30.6 75 23.9 67 67 NE 8 13 29.96 1015 10 16 0.00 0.00
4:53 pm 16:53 Mostly Cloudy 85 29.4 74 23.3 70 70 N 16 26 29.95 1014 10 16 0.00 0.00
5:53 pm 17:53 Sunny 84 28.9 72 22.2 67 67 NNE 14 22 29.94 1014 10 16 0.00 0.00
6:53 pm 18:53 Cloudy 80 26.7 72 22.2 76 76 NE 8 13 29.97 1015 10 16 0.00 0.00
7:53 pm 19:53 Mostly Cloudy with Light Rain 75 23.9 72 22.2 90 90 SE 8 13 30.01 1016 5 8 0.02 0.51
8:39 pm 20:39 Cloudy 74 23.3 71 21.7 91 91 S 5 7 29.98 1015 10 16 0.01 0.25
8:53 pm 20:53 Cloudy 74 23.3 71 21.7 91 91 S 5 7 30.01 1016 10 16 0.01 0.25
9:29 pm 21:29 Mostly Cloudy with Light Rain 74 23.3 71 21.7 91 91 S 7 11 29.99 1016 10 16 0.00 0.00
9:53 pm 21:53 Mostly Clear with Light Rain 74 23.3 71 21.7 91 91 S 3 6 30.03 1017 10 16 0.01 0.25
10:35 pm 22:35 Mostly Cloudy 74 23.3 71 21.7 91 91 S 8 13 30.01 1016 10 16 0.00 0.00
10:53 pm 22:53 Cloudy 73 22.8 70 21.1 90 90 S 8 13 30.04 1017 10 16 0.00 0.00
11:29 pm 23:29 Mostly Cloudy 73 22.8 70 21.1 90 90 SSW 3 6 30.01 1016 10 16 0.00 0.00
11:53 pm 23:53 Mostly Cloudy 73 22.8 70 21.1 90 90 Calm 30.03 1017 10 16 0.00 0.00

Powered by AerisWeather